Tracking 19709 objects as of 18-Jun-2019
HD Live streaming from Space Station
objects crossing your sky now

TOS R/B

Track TOS R/B now!


NORAD ID: 22797
Int'l Code: 1993-058D
Perigee: 355.3 km
Apogee: 38,311.5 km
Inclination: 15.1 °
Period: 683.6 minutes
Semi major axis: 25704 km
RCS: 9.198 m2 (large)
Launch date: September 12, 1993
Source: United States (US)
Launch site: AIR FORCE EASTERN TEST RANGE (AFETR)

Note: This is a ROCKET BODY
aabbcc
Your satellite tracking list
Your tracking list is empty




NASA's NSSDC Master Catalog

Two Line Element Set (TLE):
1 22797U 93058D   19168.16650613 +.00000131 +00000-0 +28785-3 0  9993
2 22797 015.0739 275.0619 7383204 136.8240 313.6392 02.10664423194228
Source of the keplerian elements: AFSPC